| time (UTC) | temp C | wind direction | speed KPH | gust KPH | rain 1hr cm | rain 24hr cm | rain mn cm | humidity % | barometer mb |
| 20260506204524 | 13 | 352 | 0.0 | 6.4 | 0.00 | 2.31 | 0.53 | 53 | 1013.2 |
| 20260506203022 | 13 | 336 | 4.8 | 8.0 | 0.00 | 2.31 | 0.53 | 50 | 1013.0 |
| 20260506201514 | 13 | 11 | 0.0 | 8.0 | 0.00 | 2.31 | 0.53 | 54 | 1012.9 |
| 20260506200026 | 13 | 308 | 1.6 | 8.0 | 0.00 | 2.31 | 0.53 | 50 | 1012.8 |
| 20260506194526 | 14 | 352 | 3.2 | 16.1 | 0.00 | 2.31 | 0.53 | 52 | 1012.8 |
| 20260506193025 | 14 | 9 | 3.2 | 14.5 | 0.00 | 2.31 | 0.53 | 49 | 1012.8 |
| 20260506191524 | 15 | 15 | 3.2 | 12.9 | 0.00 | 2.31 | 0.53 | 48 | 1012.6 |
| 20260506190024 | 15 | 26 | 0.0 | 12.9 | 0.00 | 2.31 | 0.53 | 54 | 1012.6 |
| 20260506184520 | 15 | 314 | 1.6 | 11.3 | 0.00 | 2.31 | 0.53 | 50 | 1012.7 |
| 20260506183023 | 14 | 340 | 1.6 | 12.9 | 0.00 | 2.31 | 0.53 | 52 | 1012.8 |
| 20260506181531 | 14 | 341 | 4.8 | 8.0 | 0.00 | 2.31 | 0.53 | 50 | 1012.8 |
| 20260506180034 | 14 | 341 | 3.2 | 9.7 | 0.00 | 2.31 | 0.53 | 53 | 1012.8 |
| 20260506174529 | 14 | 352 | 1.6 | 6.4 | 0.00 | 2.31 | 0.53 | 56 | 1013.0 |
| 20260506173026 | 14 | 342 | 3.2 | 8.0 | 0.00 | 2.31 | 0.53 | 54 | 1012.9 |
| 20260506171538 | 14 | 325 | 4.8 | 9.7 | 0.00 | 2.31 | 0.53 | 55 | 1012.9 |
| 20260506170024 | 13 | 340 | 6.4 | 14.5 | 0.00 | 2.31 | 0.53 | 56 | 1012.9 |
| 20260506164528 | 13 | 15 | 4.8 | 14.5 | 0.00 | 2.31 | 0.53 | 54 | 1013.0 |
| 20260506163031 | 13 | 345 | 1.6 | 11.3 | 0.00 | 2.31 | 0.53 | 57 | 1013.2 |
| 20260506161536 | 12 | 347 | 3.2 | 8.0 | 0.00 | 2.31 | 0.53 | 60 | 1013.0 |
| 20260506160028 | 12 | 29 | 3.2 | 6.4 | 0.00 | 2.31 | 0.53 | 65 | 1012.8 |
| 20260506154526 | 11 | 5 | 1.6 | 8.0 | 0.00 | 2.31 | 0.53 | 64 | 1012.6 |
| 20260506153024 | 11 | 9 | 1.6 | 8.0 | 0.00 | 2.31 | 0.53 | 69 | 1012.3 |
| 20260506151520 | 10 | 16 | 3.2 | 12.9 | 0.00 | 2.31 | 0.53 | 71 | 1012.2 |
| 20260506150030 | 10 | 49 | 1.6 | 8.0 | 0.00 | 2.31 | 0.53 | 74 | 1012.2 |
| 20260506144516 | 10 | 13 | 4.8 | 9.7 | 0.00 | 2.31 | 0.53 | 75 | 1012.3 |
| 20260506143011 | 9 | 5 | 3.2 | 8.0 | 0.00 | 2.31 | 0.53 | 77 | 1011.8 |
| 20260506141510 | 8 | 13 | 1.6 | 8.0 | 0.00 | 2.31 | 0.53 | 81 | 1011.6 |
| 20260506140010 | 8 | 352 | 4.8 | 12.9 | 0.00 | 2.31 | 0.53 | 82 | 1011.6 |
| 20260506134555 | 8 | 16 | 6.4 | 12.9 | 0.00 | 2.31 | 0.53 | 83 | 1011.4 |
| 20260506133022 | 8 | 346 | 4.8 | 9.7 | 0.00 | 2.31 | 0.53 | 86 | 1010.9 |
| 20260506131526 | 8 | 5 | 1.6 | 4.8 | 0.00 | 2.31 | 0.53 | 89 | 1011.2 |
| 20260506130018 | 7 | 342 | 1.6 | 8.0 | 0.00 | 2.31 | 0.53 | 86 | 1011.1 |
| 20260506124516 | 8 | 337 | 3.2 | 4.8 | 0.00 | 2.31 | 0.53 | 89 | 1011.0 |
| 20260506123010 | 8 | 352 | 1.6 | 6.4 | 0.00 | 2.31 | 0.53 | 93 | 1010.1 |
| 20260506121510 | 7 | 352 | 1.6 | 3.2 | 0.00 | 2.31 | 0.53 | 94 | 1010.0 |
| 20260506120025 | 7 | 5 | 1.6 | 4.8 | 0.00 | 2.31 | 0.53 | 94 | 1010.2 |
| 20260506114533 | 7 | 352 | 0.0 | 0.0 | 0.00 | 2.31 | 0.53 | 94 | 1010.3 |
| 20260506113026 | 7 | 352 | 0.0 | 4.8 | 0.00 | 2.31 | 0.53 | 94 | 1009.8 |
| 20260506111518 | 7 | 360 | 1.6 | 8.0 | 0.00 | 2.31 | 0.53 | 93 | 1009.1 |
| 20260506110018 | 7 | 352 | 3.2 | 6.4 | 0.00 | 2.31 | 0.53 | 94 | 1008.9 |
| 20260506104510 | 7 | 334 | 1.6 | 8.0 | 0.00 | 2.31 | 0.53 | 94 | 1009.3 |
| 20260506103028 | 7 | 360 | 3.2 | 4.8 | 0.03 | 2.31 | 0.53 | 93 | 1009.1 |
| 20260506101526 | 7 | 351 | 1.6 | 6.4 | 0.03 | 2.31 | 0.53 | 93 | 1008.6 |
| 20260506100031 | 7 | 5 | 3.2 | 6.4 | 0.03 | 2.31 | 0.53 | 93 | 1008.0 |
| 20260506094519 | 7 | 17 | 0.0 | 8.0 | 0.05 | 2.31 | 0.53 | 93 | 1007.7 |
| 20260506093017 | 7 | 15 | 3.2 | 11.3 | 0.08 | 2.29 | 0.51 | 93 | 1008.0 |
| 20260506091515 | 7 | 15 | 3.2 | 6.4 | 0.13 | 2.29 | 0.51 | 94 | 1008.1 |
| 20260506090012 | 7 | 343 | 4.8 | 8.0 | 0.15 | 2.29 | 0.51 | 94 | 1007.8 |
| 20260506084528 | 7 | 352 | 4.8 | 11.3 | 0.13 | 2.26 | 0.48 | 93 | 1008.3 |
| 20260506083027 | 7 | 352 | 4.8 | 11.3 | 0.08 | 2.21 | 0.43 | 93 | 1007.8 |
| 20260506081526 | 8 | 351 | 4.8 | 11.3 | 0.05 | 2.16 | 0.38 | 93 | 1008.0 |
| 20260506073014 | 8 | 341 | 3.2 | 6.4 | 0.15 | 2.13 | 0.36 | 93 | 1007.3 |
| 20260506071530 | 8 | 12 | 4.8 | 8.0 | 0.15 | 2.11 | 0.33 | 93 | 1007.2 |
| 20260506061533 | 10 | 360 | 3.2 | 4.8 | 0.18 | 1.96 | 0.18 | 94 | 1007.3 |
| 20260506044523 | 10 | 360 | 0.0 | 0.0 | 0.03 | 1.78 | 0.00 | 93 | 1007.9 |
| 20260506043022 | 10 | 352 | 1.6 | 6.4 | 0.10 | 1.78 | 0.00 | 92 | 1008.1 |
| 20260506041517 | 10 | 352 | 3.2 | 4.8 | 0.28 | 1.78 | 0.00 | 91 | 1008.1 |
| 20260506040021 | 11 | 352 | 0.0 | 8.0 | 0.46 | 1.78 | 0.00 | 90 | 1008.3 |
| 20260506034512 | 12 | 344 | 3.2 | 6.4 | 0.48 | 1.75 | 1.75 | 89 | 1008.4 |
| 20260506033014 | 13 | 267 | 1.6 | 17.7 | 0.48 | 1.68 | 1.68 | 93 | 1008.5 |
| 20260506031529 | 14 | 236 | 3.2 | 17.7 | 0.41 | 1.47 | 1.47 | 93 | 1008.7 |
| 20260506030025 | 14 | 252 | 9.7 | 19.3 | 0.33 | 1.32 | 1.32 | 93 | 1008.7 |
| 20260506024535 | 14 | 203 | 4.8 | 11.3 | 0.38 | 1.27 | 1.27 | 92 | 1008.6 |
| 20260506023020 | 15 | 219 | 1.6 | 6.4 | 0.38 | 1.19 | 1.19 | 93 | 1008.8 |
| 20260506021519 | 15 | 207 | 1.6 | 6.4 | 0.30 | 1.09 | 1.09 | 93 | 1008.9 |
| 20260506020013 | 15 | 252 | 3.2 | 20.9 | 0.20 | 0.99 | 0.99 | 93 | 1008.9 |
| 20260506014514 | 15 | 215 | 1.6 | 4.8 | 0.13 | 0.89 | 0.89 | 93 | 1008.8 |
| 20260506013028 | 15 | 207 | 0.0 | 3.2 | 0.10 | 0.81 | 0.81 | 93 | 1008.6 |
| 20260506011556 | 15 | 198 | 0.0 | 3.2 | 0.08 | 0.79 | 0.79 | 93 | 1008.4 |
| 20260506010023 | 15 | 202 | 1.6 | 6.4 | 0.10 | 0.79 | 0.79 | 93 | 1008.4 |
| 20260506004518 | 15 | 188 | 0.0 | 9.7 | 0.08 | 0.76 | 0.76 | 93 | 1008.7 |
| 20260506003019 | 15 | 222 | 3.2 | 9.7 | 0.03 | 0.71 | 0.71 | 93 | 1008.7 |
| 20260506001512 | 15 | 232 | 1.6 | 9.7 | 0.03 | 0.71 | 0.71 | 93 | 1008.6 |
| 20260506000045 | 15 | 209 | 1.6 | 3.2 | 0.00 | 0.69 | 0.69 | 93 | 1008.5 |
| 20260505234539 | 15 | 202 | 0.0 | 3.2 | 0.03 | 0.69 | 0.69 | 92 | 1008.5 |
| 20260505233024 | 15 | 229 | 0.0 | 4.8 | 0.08 | 0.69 | 0.69 | 92 | 1008.6 |
| 20260505231523 | 15 | 232 | 1.6 | 6.4 | 0.20 | 0.69 | 0.69 | 92 | 1008.8 |
| 20260505230046 | 15 | 207 | 1.6 | 6.4 | 0.28 | 0.69 | 0.69 | 91 | 1008.9 |
| 20260505224534 | 15 | 221 | 1.6 | 11.3 | 0.66 | 0.66 | 0.66 | 91 | 1009.1 |
| 20260505223021 | 15 | 50 | 1.6 | 16.1 | 0.61 | 0.61 | 0.61 | 90 | 1009.2 |
| 20260505221528 | 15 | 263 | 1.6 | 9.7 | 0.48 | 0.48 | 0.48 | 89 | 1009.2 |
| 20260505220027 | 15 | 254 | 3.2 | 20.9 | 0.41 | 0.41 | 0.41 | 85 | 1009.1 |
| 20260505214529 | 19 | 28 | 4.8 | 25.7 | 0.00 | 0.00 | 0.00 | 68 | 1008.8 |
| 20260505213026 | 20 | 243 | 4.8 | 24.1 | 0.00 | 0.00 | 0.00 | 60 | 1008.1 |
| 20260505211527 | 21 | 282 | 8.0 | 30.6 | 0.00 | 0.00 | 0.00 | 59 | 1007.9 |
| 20260505210017 | 20 | 171 | 8.0 | 19.3 | 0.00 | 0.00 | 0.00 | 59 | 1007.7 |